�������l�o���
Date,Time,MP-1(��Sv/h),MP-2(��Sv/h),MP-3(��Sv/h),MP-4(��Sv/h),MP-5(��Sv/h),MP-6(��Sv/h),MP-7(��Sv/h),����,����(m/s),���J
2018/11/21,00:00,0.312,0.192,0.306,0.296,0.279,0.155,0.095,��,7.6,��
2018/11/21,00:10,0.314,0.193,0.308,0.294,0.280,0.155,0.095,��,7.9,��
2018/11/21,00:20,0.314,0.192,0.308,0.294,0.281,0.155,0.095,��,7.1,��
2018/11/21,00:30,0.312,0.193,0.307,0.295,0.280,0.154,0.094,��,7.5,��
2018/11/21,00:40,0.312,0.193,0.306,0.295,0.278,0.155,0.094,��,7.5,��
2018/11/21,00:50,0.314,0.191,0.306,0.294,0.280,0.155,0.095,��,8.1,��
2018/11/21,01:00,0.312,0.193,0.306,0.296,0.281,0.155,0.095,��,8.3,��
2018/11/21,01:10,0.312,0.192,0.306,0.295,0.280,0.155,0.095,���k��,7.5,��
2018/11/21,01:20,0.312,0.192,0.307,0.295,0.279,0.156,0.095,�k��,4.2,��
2018/11/21,01:30,0.314,0.193,0.307,0.295,0.280,0.155,0.095,�k��,2.3,��
2018/11/21,01:40,0.314,0.193,0.307,0.295,0.280,0.155,0.095,�k,1.8,��
2018/11/21,01:50,0.312,0.193,0.307,0.295,0.279,0.155,0.096,�k,0.8,��
2018/11/21,02:00,0.314,0.192,0.307,0.295,0.280,0.155,0.095,�k�k��,0.6,��
2018/11/21,02:10,0.313,0.192,0.308,0.296,0.280,0.155,0.095,���k��,1.5,��
2018/11/21,02:20,0.313,0.194,0.308,0.294,0.280,0.155,0.095,���k��,1.3,��
2018/11/21,02:30,0.313,0.192,0.306,0.294,0.280,0.156,0.095,���쓌,1.8,��
2018/11/21,02:40,0.312,0.193,0.307,0.295,0.280,0.155,0.095,�쓌,2.9,��
2018/11/21,02:50,0.314,0.192,0.308,0.295,0.281,0.155,0.095,��쓌,2.7,��
2018/11/21,03:00,0.314,0.193,0.308,0.296,0.279,0.156,0.095,��,2.9,��
2018/11/21,03:10,0.313,0.193,0.307,0.295,0.280,0.156,0.095,��,3.2,��
2018/11/21,03:20,0.313,0.193,0.306,0.295,0.279,0.155,0.095,��쐼,2.9,��
2018/11/21,03:30,0.313,0.192,0.308,0.296,0.280,0.155,0.095,��쐼,3.0,��
2018/11/21,03:40,0.314,0.192,0.308,0.295,0.280,0.155,0.095,�쐼,1.9,��
2018/11/21,03:50,0.313,0.193,0.307,0.295,0.279,0.155,0.094,�쐼,1.9,��
2018/11/21,04:00,0.311,0.192,0.306,0.295,0.280,0.155,0.095,��쐼,1.5,��
2018/11/21,04:10,0.312,0.191,0.306,0.295,0.280,0.156,0.095,�쐼,1.1,��
2018/11/21,04:20,0.312,0.192,0.307,0.295,0.280,0.155,0.095,��쐼,1.2,��
2018/11/21,04:30,0.312,0.193,0.307,0.294,0.281,0.156,0.095,��쐼,1.5,��
2018/11/21,04:40,0.313,0.192,0.308,0.294,0.280,0.155,0.094,��쐼,1.4,��
2018/11/21,04:50,0.312,0.193,0.307,0.294,0.279,0.156,0.095,��쐼,1.3,��
2018/11/21,05:00,0.313,0.192,0.307,0.295,0.280,0.155,0.095,�쐼,2.2,��
2018/11/21,05:10,0.313,0.192,0.306,0.295,0.278,0.155,0.095,��쐼,2.9,��
2018/11/21,05:20,0.314,0.193,0.306,0.294,0.279,0.156,0.095,�쐼,3.2,��
2018/11/21,05:30,0.313,0.193,0.307,0.296,0.280,0.155,0.095,�쐼,2.8,��
2018/11/21,05:40,0.313,0.192,0.307,0.296,0.278,0.155,0.095,�쐼,3.4,��
2018/11/21,05:50,0.313,0.192,0.307,0.295,0.280,0.155,0.095,�쐼,3.9,��
2018/11/21,06:00,0.312,0.192,0.308,0.295,0.280,0.155,0.095,���쐼,3.0,��
2018/11/21,06:10,0.312,0.192,0.307,0.294,0.279,0.155,0.095,���쐼,2.7,��
2018/11/21,06:20,0.311,0.191,0.307,0.296,0.279,0.156,0.095,�쐼,5.5,��
2018/11/21,06:30,0.312,0.192,0.309,0.294,0.279,0.156,0.096,�쐼,4.1,��
2018/11/21,06:40,0.313,0.193,0.307,0.296,0.281,0.156,0.095,�쐼,4.3,��
2018/11/21,06:50,0.312,0.192,0.308,0.295,0.279,0.155,0.094,�쐼,3.9,��
2018/11/21,07:00,0.311,0.193,0.307,0.295,0.279,0.156,0.095,��쐼,2.7,��
2018/11/21,07:10,0.311,0.192,0.307,0.295,0.281,0.155,0.095,��쐼,3.1,��
2018/11/21,07:20,0.314,0.193,0.307,0.293,0.280,0.155,0.095,�쐼,2.9,��
2018/11/21,07:30,0.312,0.193,0.306,0.294,0.279,0.155,0.095,��쐼,3.3,��
2018/11/21,07:40,0.313,0.192,0.306,0.295,0.279,0.156,0.094,�쐼,3.4,��
2018/11/21,07:50,0.313,0.192,0.306,0.294,0.281,0.155,0.094,��쐼,3.3,��
2018/11/21,08:00,0.313,0.192,0.305,0.295,0.279,0.155,0.095,��쐼,4.0,��
2018/11/21,08:10,0.312,0.192,0.306,0.295,0.279,0.155,0.094,��쐼,4.4,��
2018/11/21,08:20,0.311,0.192,0.308,0.295,0.279,0.155,0.094,��쐼,4.9,��
2018/11/21,08:30,0.312,0.192,0.306,0.293,0.278,0.154,0.095,��쐼,5.9,��
2018/11/21,08:40,0.312,0.192,0.307,0.295,0.279,0.155,0.095,��쐼,5.6,��
2018/11/21,08:50,0.312,0.192,0.307,0.294,0.279,0.155,0.096,��쐼,6.0,��
2018/11/21,09:00,0.312,0.192,0.307,0.293,0.279,0.155,0.094,��,5.2,��
2018/11/21,09:10,0.312,0.193,0.306,0.296,0.280,0.154,0.094,��,5.9,��
2018/11/21,09:20,0.312,0.192,0.307,0.292,0.279,0.155,0.094,��,5.8,��
2018/11/21,09:30,0.313,0.191,0.305,0.295,0.281,0.155,0.095,��,5.2,��
2018/11/21,09:40,0.312,0.191,0.306,0.294,0.278,0.154,0.094,��,5.0,��
2018/11/21,09:50,0.312,0.191,0.307,0.295,0.280,0.155,0.094,��,4.6,��
2018/11/21,10:00,0.309,0.192,0.306,0.294,0.282,0.156,0.095,��,4.8,��
2018/11/21,10:10,0.312,0.191,0.306,0.295,0.279,0.155,0.095,��,4.1,��
2018/11/21,10:20,0.309,0.193,0.306,0.294,0.279,0.155,0.094,��,3.8,��
2018/11/21,10:30,0.313,0.192,0.304,0.296,0.280,0.154,0.095,��쓌,4.2,��
2018/11/21,10:40,0.310,0.192,0.307,0.293,0.277,0.156,0.095,��쓌,4.6,��
2018/11/21,10:50,0.311,0.191,0.306,0.296,0.281,0.155,0.094,��쓌,5.3,��
2018/11/21,11:00,0.311,0.191,0.306,0.292,0.279,0.156,0.095,��쓌,5.4,��
2018/11/21,11:10,0.309,0.191,0.306,0.296,0.280,0.155,0.094,��쓌,6.5,��
2018/11/21,11:20,0.311,0.192,0.307,0.292,0.281,0.155,0.094,��쓌,6.8,��
2018/11/21,11:30,0.311,0.192,0.307,0.295,0.278,0.155,0.095,��쓌,6.0,��
2018/11/21,11:40,0.311,0.191,0.305,0.294,0.281,0.157,0.094,��,7.1,��
2018/11/21,11:50,0.312,0.193,0.307,0.295,0.278,0.155,0.094,��,6.6,��
2018/11/21,12:00,0.309,0.192,0.305,0.294,0.282,0.156,0.094,��,7.8,��
2018/11/21,12:10,0.312,0.192,0.306,0.294,0.281,0.155,0.095,��,7.1,��
2018/11/21,12:20,0.310,0.192,0.307,0.296,0.279,0.155,0.094,��,6.3,��
2018/11/21,12:30,0.311,0.192,0.309,0.294,0.280,0.155,0.095,��,7.0,��
2018/11/21,12:40,0.313,0.192,0.305,0.296,0.279,0.154,0.094,��,7.4,��
2018/11/21,12:50,0.311,0.192,0.307,0.294,0.283,0.156,0.095,��,6.1,��
2018/11/21,13:00,0.314,0.191,0.307,0.297,0.280,0.155,0.095,��,5.8,��
2018/11/21,13:10,0.311,0.193,0.307,0.294,0.283,0.156,0.095,��쓌,5.7,��
2018/11/21,13:20,0.313,0.192,0.305,0.296,0.281,0.156,0.095,��,4.6,��
2018/11/21,13:30,0.312,0.192,0.309,0.295,0.282,0.156,0.094,��,4.4,��
2018/11/21,13:40,0.312,0.190,0.305,0.294,0.278,0.155,0.095,��,5.1,��
2018/11/21,13:50,0.312,0.193,0.307,0.296,0.281,0.156,0.095,��쓌,4.0,��
2018/11/21,14:00,0.312,0.192,0.306,0.293,0.280,0.155,0.095,��쓌,3.7,��
2018/11/21,14:10,0.312,0.192,0.308,0.296,0.279,0.155,0.096,��,4.8,��
2018/11/21,14:20,0.315,0.192,0.306,0.294,0.282,0.156,0.095,��,5.4,��
2018/11/21,14:30,0.312,0.192,0.309,0.297,0.280,0.155,0.095,��,5.3,��
2018/11/21,14:40,0.314,0.193,0.306,0.295,0.282,0.155,0.095,��,5.4,��
2018/11/21,14:50,0.312,0.193,0.307,0.297,0.281,0.155,0.094,��,5.2,��
2018/11/21,15:00,0.314,0.192,0.306,0.294,0.282,0.155,0.094,��,4.9,��
2018/11/21,15:10,0.310,0.193,0.309,0.297,0.281,0.155,0.096,��,5.3,��
2018/11/21,15:20,0.313,0.193,0.308,0.295,0.282,0.155,0.094,��,5.9,��
2018/11/21,15:30,0.313,0.194,0.307,0.297,0.282,0.156,0.095,��쐼,5.8,��
2018/11/21,15:40,0.311,0.192,0.308,0.297,0.281,0.155,0.094,��쐼,5.3,��
2018/11/21,15:50,0.313,0.193,0.306,0.296,0.282,0.157,0.095,��쐼,4.5,��
2018/11/21,16:00,0.313,0.194,0.308,0.298,0.281,0.156,0.096,��쐼,3.8,��
2018/11/21,16:10,0.313,0.192,0.308,0.296,0.282,0.155,0.095,��쐼,4.4,��
2018/11/21,16:20,0.314,0.193,0.306,0.296,0.279,0.156,0.094,��쐼,3.6,��
2018/11/21,16:30,0.312,0.193,0.309,0.296,0.281,0.156,0.096,��쐼,3.9,��
2018/11/21,16:40,0.313,0.193,0.307,0.295,0.281,0.156,0.095,���쐼,2.4,��
2018/11/21,16:50,0.313,0.193,0.308,0.295,0.280,0.156,0.096,�k��,3.3,��
2018/11/21,17:00,0.312,0.193,0.308,0.296,0.281,0.155,0.096,�k,6.8,��
2018/11/21,17:10,0.313,0.193,0.307,0.295,0.281,0.156,0.095,�k�k��,5.5,��
2018/11/21,17:20,0.314,0.194,0.307,0.296,0.281,0.156,0.095,�k�k��,5.7,��
2018/11/21,17:30,0.314,0.192,0.307,0.296,0.281,0.157,0.095,�k�k��,5.9,��
2018/11/21,17:40,0.314,0.193,0.306,0.296,0.280,0.157,0.095,�k�k��,5.5,��
2018/11/21,17:50,0.313,0.193,0.307,0.296,0.280,0.157,0.095,�k�k��,5.3,��
2018/11/21,18:00,0.313,0.191,0.308,0.298,0.282,0.157,0.095,�k�k��,5.5,��
2018/11/21,18:10,0.314,0.192,0.307,0.296,0.280,0.157,0.095,�k�k��,5.4,��
2018/11/21,18:20,0.311,0.195,0.308,0.297,0.281,0.156,0.095,�k�k��,6.0,��
2018/11/21,18:30,0.313,0.193,0.308,0.297,0.281,0.155,0.095,�k�k��,5.7,��
2018/11/21,18:40,0.314,0.192,0.307,0.296,0.281,0.156,0.096,�k�k��,4.9,��
2018/11/21,18:50,0.311,0.192,0.309,0.297,0.281,0.156,0.095,�k��,4.6,��
2018/11/21,19:00,0.313,0.193,0.308,0.297,0.281,0.156,0.095,�k��,4.5,��
2018/11/21,19:10,0.314,0.194,0.307,0.296,0.281,0.156,0.095,�k��,3.7,��
2018/11/21,19:20,0.311,0.192,0.309,0.295,0.282,0.156,0.096,�k��,4.1,��
2018/11/21,19:30,0.313,0.192,0.307,0.296,0.281,0.155,0.096,�k��,3.8,��
2018/11/21,19:40,0.314,0.192,0.306,0.297,0.282,0.156,0.095,�k��,3.5,��
2018/11/21,19:50,0.313,0.193,0.309,0.297,0.283,0.155,0.095,���k��,3.1,��
2018/11/21,20:00,0.315,0.193,0.308,0.297,0.279,0.155,0.096,�k��,1.6,��
2018/11/21,20:10,0.314,0.192,0.305,0.296,0.280,0.156,0.095,��,0.9,��
2018/11/21,20:20,0.312,0.193,0.308,0.296,0.282,0.157,0.095,���쐼,0.9,��
2018/11/21,20:30,0.315,0.192,0.309,0.297,0.280,0.156,0.095,���쐼,0.7,��
2018/11/21,20:40,0.312,0.193,0.308,0.297,0.282,0.155,0.096,-,CALM,��
2018/11/21,20:50,0.312,0.193,0.308,0.295,0.280,0.155,0.096,-,CALM,��
2018/11/21,21:00,0.314,0.193,0.309,0.297,0.280,0.157,0.096,��,0.9,��
2018/11/21,21:10,0.314,0.192,0.307,0.296,0.282,0.155,0.095,�쐼,0.7,��
2018/11/21,21:20,0.312,0.193,0.308,0.296,0.282,0.155,0.095,��,0.8,��
2018/11/21,21:30,0.314,0.194,0.308,0.296,0.281,0.156,0.096,��,1.1,��
2018/11/21,21:40,0.313,0.193,0.309,0.297,0.281,0.156,0.096,���쓌,0.6,��
2018/11/21,21:50,0.313,0.192,0.308,0.297,0.282,0.157,0.095,-,CALM,��
2018/11/21,22:00,0.314,0.194,0.308,0.296,0.280,0.155,0.096,��쐼,0.7,��
2018/11/21,22:10,0.314,0.193,0.309,0.297,0.282,0.157,0.095,�쓌,0.7,��
2018/11/21,22:20,0.312,0.192,0.306,0.297,0.281,0.157,0.094,-,CALM,��
2018/11/21,22:30,0.312,0.193,0.309,0.296,0.281,0.156,0.095,-,CALM,��
2018/11/21,22:40,0.313,0.194,0.308,0.295,0.281,0.157,0.094,-,CALM,��
2018/11/21,22:50,0.314,0.193,0.306,0.296,0.280,0.156,0.096,-,CALM,��
2018/11/21,23:00,0.312,0.193,0.309,0.297,0.280,0.156,0.095,-,CALM,��
2018/11/21,23:10,0.313,0.193,0.308,0.298,0.281,0.156,0.095,���k��,0.9,��
2018/11/21,23:20,0.315,0.192,0.307,0.296,0.282,0.156,0.095,�k��,1.9,��
2018/11/21,23:30,0.314,0.193,0.309,0.298,0.280,0.156,0.096,�k�k��,1.8,��
2018/11/21,23:40,0.314,0.192,0.309,0.296,0.279,0.156,0.095,�k,1.7,��
2018/11/21,23:50,0.314,0.192,0.309,0.296,0.280,0.156,0.094,�k,3.2,��
